START_TIME,STEP,MOV.,A46,t_acc.,A13,t_acc.,M47,t_acc.,A17,t_acc.,A28,t_acc.,M38,t_acc.
1979-07-16 15:00:25.560 ,0,0,,0,3.,4.8,0.,4.8,,0,0.,4.8,0.,4.8
1979-07-16 15:00:30.360 ,0,0,,0,5.,4.8,0.,4.8,,0,0.,4.8,0.,4.8
1979-07-16 15:00:35.160 ,0,0,,0,0.,4.8,0.,4.8,,0,0.,4.8,1.,4.8
1979-07-16 15:00:39.960 ,0,0,,0,0.,4.8,0.,4.8,,0,0.,4.8,0.,4.8
1979-07-16 15:00:44.760 ,0,0,,0,0.,4.8,0.,4.8,,0,0.,4.8,0.,4.8
1979-07-16 15:00:49.560 ,2,0,,0,0.,4.8,0.,4.8,,0,0.,4.8,0.,4.8
1979-07-16 15:00:54.360 ,2,0,,0,0.,4.8,0.,4.8,,0,0.,4.8,2.,4.8
1979-07-16 15:00:59.160 ,2,0,,0,6.,4.8,1.,4.8,,0,0.,4.8,9.,4.8
1979-07-16 15:01:03.960 ,2,0,,0,38.,4.8,6.,4.8,,0,0.,4.8,11.,4.8
1979-07-16 15:01:08.760 ,2,0,,0,25.,4.8,5.,4.8,,0,0.,4.8,10.,4.8
1979-07-16 15:01:13.560 ,2,0,,0,49.,4.8,6.,4.8,,0,0.,4.8,25.,4.8
1979-07-16 15:01:18.360 ,2,0,,0,23.,4.8,2.,4.8,,0,0.,4.8,9.,4.8
1979-07-16 15:01:23.160 ,2,0,,0,37.,4.8,7.,4.8,,0,0.,4.8,12.,4.8
1979-07-16 15:01:27.960 ,2,0,,0,0.,4.8,0.,4.8,,0,0.,4.8,14.,4.8
1979-07-16 15:01:32.760 ,2,0,,0,0.,4.8,0.,4.8,,0,0.,4.8,10.,4.8
1979-07-16 15:01:37.560 ,3,0,,0,1.,4.8,0.,4.8,,0,0.,4.8,6.,4.8
1979-07-16 15:01:42.360 ,3,0,,0,0.,4.8,0.,4.8,,0,0.,4.8,13.,4.8
1979-07-16 15:01:47.160 ,3,0,,0,18.,4.8,3.,4.8,,0,0.,4.8,35.,4.8
1979-07-16 15:01:51.960 ,3,0,,0,72.,4.8,6.,4.8,,0,0.,4.8,34.,4.8
1979-07-16 15:01:56.760 ,3,0,,0,90.,4.8,10.,4.8,,0,0.,4.8,48.,4.8
1979-07-16 15:02:01.560 ,3,0,,0,88.,4.8,10.,4.8,,0,0.,4.8,49.,4.8
1979-07-16 15:02:06.360 ,3,0,,0,96.,4.8,12.,4.8,,0,0.,4.8,55.,4.8
1979-07-16 15:02:11.160 ,3,0,,0,78.,4.8,13.,4.8,,0,0.,4.8,38.,4.8
1979-07-16 15:02:15.960 ,3,0,,0,0.,4.8,0.,4.8,,0,0.,4.8,48.,4.8
1979-07-16 15:02:20.760 ,3,0,,0,0.,4.8,0.,4.8,,0,0.,4.8,64.,4.8
1979-07-16 15:02:25.560 ,4,0,,0,0.,4.8,0.,4.8,,0,0.,4.8,54.,4.8
1979-07-16 15:02:30.360 ,4,0,,0,0.,4.8,0.,4.8,,0,0.,4.8,32.,4.8
1979-07-16 15:02:35.160 ,4,0,,0,4.,4.8,0.,4.8,,0,0.,4.8,1.,4.8
1979-07-16 15:02:39.960 ,4,0,,0,7.,4.8,0.,4.8,,0,0.,4.8,1.,4.8
1979-07-16 15:02:44.760 ,4,0,,0,5.,4.8,1.,4.8,,0,0.,4.8,0.,4.8
1979-07-16 15:02:49.560 ,4,0,,0,9.,4.8,0.,4.8,,0,0.,4.8,0.,4.8
1979-07-16 15:02:54.360 ,4,0,,0,10.,4.8,1.,4.8,,0,0.,4.8,0.,4.8
1979-07-16 15:02:59.160 ,4,0,,0,8.,4.8,0.,4.8,,0,0.,4.8,0.,4.8
1979-07-16 15:03:03.960 ,4,0,,0,0.,4.8,0.,4.8,,0,0.,4.8,0.,4.8
1979-07-16 15:03:08.760 ,4,0,,0,0.,4.8,0.,4.8,,0,0.,4.8,0.,4.8
1979-07-16 15:04:01.560 ,0,0,,0,0.,4.8,0.,4.8,,0,0.,4.8,0.,4.8
1979-07-16 15:04:06.360 ,0,0,,0,0.,4.8,0.,4.8,,0,0.,4.8,0.,4.8
1979-07-16 15:04:11.160 ,0,0,,0,0.,4.8,0.,4.8,,0,0.,4.8,0.,4.8
1979-07-16 15:04:15.960 ,0,0,,0,5.,4.8,0.,4.8,,0,0.,4.8,0.,4.8
1979-07-16 15:04:20.760 ,0,0,,0,7.,4.8,0.,4.8,,0,0.,4.8,0.,4.8
1979-07-16 15:04:25.560 ,0,0,,0,7.,4.8,0.,4.8,,0,0.,4.8,0.,4.8
1979-07-16 15:04:30.360 ,0,0,,0,7.,4.8,0.,4.8,,0,0.,4.8,0.,4.8
1979-07-16 15:04:35.160 ,0,0,,0,6.,4.8,0.,4.8,,0,0.,4.8,0.,4.8
1979-07-16 15:04:39.960 ,0,0,,0,0.,4.8,0.,4.8,,0,0.,4.8,0.,4.8
1979-07-16 15:04:44.760 ,0,0,,0,0.,4.8,0.,4.8,,0,0.,4.8,0.,4.8
1979-07-16 15:04:49.560 ,7,0,,0,0.,4.8,0.,4.8,,0,0.,4.8,0.,4.8
1979-07-16 15:04:54.360 ,7,0,,0,0.,4.8,0.,4.8,,0,0.,4.8,0.,4.8
1979-07-16 15:04:59.160 ,7,0,,0,1.,4.8,0.,4.8,,0,0.,4.8,0.,4.8
1979-07-16 15:05:03.960 ,7,0,,0,6.,4.8,0.,4.8,,0,0.,4.8,0.,4.8
1979-07-16 15:05:08.760 ,7,0,,0,12.,4.8,0.,4.8,,0,0.,4.8,0.,4.8
1979-07-16 15:05:13.560 ,7,0,,0,12.,4.8,0.,4.8,,0,0.,4.8,1.,4.8
1979-07-16 15:05:18.360 ,7,0,,0,9.,4.8,0.,4.8,,0,0.,4.8,0.,4.8
1979-07-16 15:05:23.160 ,7,0,,0,8.,4.8,0.,4.8,,0,0.,4.8,0.,4.8
1979-07-16 15:05:27.960 ,7,0,,0,0.,4.8,0.,4.8,,0,0.,4.8,0.,4.8
1979-07-16 15:05:32.760 ,7,0,,0,0.,4.8,0.,4.8,,0,0.,4.8,0.,4.8
1979-07-16 15:05:37.560 ,7,0,,0,0.,4.8,0.,4.8,,0,0.,4.8,0.,4.8
1979-07-16 15:05:42.360 ,7,0,,0,0.,4.8,0.,4.8,,0,0.,4.8,0.,4.8
1979-07-16 15:05:47.160 ,7,0,,0,0.,4.8,0.,4.8,,0,0.,4.8,0.,4.8
1979-07-16 15:05:51.960 ,7,0,,0,9.,4.8,0.,4.8,,0,0.,4.8,0.,4.8
1979-07-16 15:05:56.760 ,7,0,,0,11.,4.8,0.,4.8,,0,0.,4.8,0.,4.8
1979-07-16 15:06:01.560 ,7,0,,0,13.,4.8,0.,4.8,,0,0.,4.8,0.,4.8
1979-07-16 15:06:06.360 ,7,0,,0,14.,4.8,0.,4.8,,0,0.,4.8,0.,4.8
1979-07-16 15:06:11.160 ,7,0,,0,8.,4.8,0.,4.8,,0,0.,4.8,0.,4.8
1979-07-16 15:06:15.960 ,7,0,,0,0.,4.8,0.,4.8,,0,0.,4.8,0.,4.8
1979-07-16 15:06:20.760 ,7,0,,0,0.,4.8,0.,4.8,,0,0.,4.8,0.,4.8
1979-07-16 15:06:25.560 ,6,0,,0,0.,4.8,0.,4.8,,0,0.,4.8,0.,4.8
1979-07-16 15:06:30.360 ,6,0,,0,0.,4.8,0.,4.8,,0,0.,4.8,0.,4.8
1979-07-16 15:06:35.160 ,6,0,,0,0.,4.8,0.,4.8,,0,0.,4.8,0.,4.8
1979-07-16 15:06:39.960 ,6,0,,0,6.,4.8,0.,4.8,,0,0.,4.8,0.,4.8
1979-07-16 15:06:44.760 ,6,0,,0,8.,4.8,0.,4.8,,0,0.,4.8,0.,4.8
1979-07-16 15:06:49.560 ,6,0,,0,4.,4.8,0.,4.8,,0,0.,4.8,0.,4.8
1979-07-16 15:06:54.360 ,6,0,,0,5.,4.8,0.,4.8,,0,0.,4.8,0.,4.8
1979-07-16 15:06:59.160 ,6,0,,0,2.,4.8,0.,4.8,,0,0.,4.8,0.,4.8
1979-07-16 15:07:03.960 ,6,0,,0,0.,4.8,0.,4.8,,0,0.,4.8,0.,4.8
1979-07-16 15:07:08.760 ,6,0,,0,0.,4.8,0.,4.8,,0,0.,4.8,0.,4.8
1979-07-16 15:07:13.560 ,5,0,,0,0.,4.8,0.,4.8,,0,0.,4.8,0.,4.8
1979-07-16 15:07:18.360 ,5,0,,0,0.,4.8,0.,4.8,,0,0.,4.8,0.,4.8
1979-07-16 15:07:23.160 ,5,0,,0,0.,4.8,0.,4.8,,0,0.,4.8,0.,4.8
1979-07-16 15:07:27.960 ,5,0,,0,6.,4.8,0.,4.8,,0,0.,4.8,0.,4.8
1979-07-16 15:07:32.760 ,5,0,,0,2.,4.8,0.,4.8,,0,0.,4.8,0.,4.8
1979-07-16 15:07:37.560 ,5,0,,0,6.,4.8,1.,4.8,,0,0.,4.8,0.,4.8
1979-07-16 15:07:42.360 ,5,0,,0,3.,4.8,0.,4.8,,0,0.,4.8,1.,4.8
1979-07-16 15:07:47.160 ,5,0,,0,2.,4.8,0.,4.8,,0,0.,4.8,0.,4.8
1979-07-16 15:07:51.960 ,5,0,,0,0.,4.8,0.,4.8,,0,0.,4.8,0.,4.8
1979-07-16 15:07:56.760 ,5,0,,0,0.,4.8,0.,4.8,,0,0.,4.8,1.,4.8
1979-07-16 15:08:01.560 ,4,0,,0,0.,4.8,0.,4.8,,0,0.,4.8,0.,4.8
1979-07-16 15:08:06.360 ,4,0,,0,0.,4.8,0.,4.8,,0,0.,4.8,0.,4.8
1979-07-16 15:08:11.160 ,4,0,,0,2.,4.8,0.,4.8,,0,0.,4.8,0.,4.8
1979-07-16 15:08:15.960 ,4,0,,0,3.,4.8,0.,4.8,,0,0.,4.8,0.,4.8
1979-07-16 15:08:20.760 ,4,0,,0,6.,4.8,0.,4.8,,0,0.,4.8,0.,4.8
1979-07-16 15:08:25.560 ,4,0,,0,2.,4.8,0.,4.8,,0,0.,4.8,1.,4.8
1979-07-16 15:08:30.360 ,4,0,,0,5.,4.8,0.,4.8,,0,0.,4.8,0.,4.8
1979-07-16 15:08:35.160 ,4,0,,0,5.,4.8,0.,4.8,,0,0.,4.8,0.,4.8
1979-07-16 15:08:39.960 ,4,0,,0,0.,4.8,0.,4.8,,0,0.,4.8,0.,4.8
1979-07-16 15:08:44.760 ,4,0,,0,0.,4.8,0.,4.8,,0,0.,4.8,0.,4.8
1979-07-16 15:08:49.560 ,3,0,,0,0.,4.8,0.,4.8,,0,0.,4.8,0.,4.8
1979-07-16 15:08:54.360 ,3,0,,0,0.,4.8,0.,4.8,,0,0.,4.8,4.,4.8
1979-07-16 15:08:59.160 ,3,0,,0,4.,4.8,1.,4.8,,0,0.,4.8,26.,4.8
1979-07-16 15:09:03.960 ,3,0,,0,50.,4.8,4.,4.8,,0,0.,4.8,22.,4.8
1979-07-16 15:09:08.760 ,3,0,,0,41.,4.8,9.,4.8,,0,0.,4.8,18.,4.8
1979-07-16 15:09:13.560 ,3,0,,0,45.,4.8,7.,4.8,,0,0.,4.8,15.,4.8
1979-07-16 15:09:18.360 ,3,0,,0,28.,4.8,4.,4.8,,0,0.,4.8,20.,4.8
1979-07-16 15:09:23.160 ,3,0,,0,33.,4.8,5.,4.8,,0,0.,4.8,13.,4.8
1979-07-16 15:09:27.960 ,3,0,,0,0.,4.8,0.,4.8,,0,0.,4.8,22.,4.8
1979-07-16 15:09:32.760 ,3,0,,0,0.,4.8,0.,4.8,,0,0.,4.8,20.,4.8
1979-07-16 15:09:37.560 ,2,0,,0,0.,4.8,0.,4.8,,0,0.,4.8,15.,4.8
1979-07-16 15:09:42.360 ,2,0,,0,0.,4.8,0.,4.8,,0,0.,4.8,11.,4.8
1979-07-16 15:09:47.160 ,2,0,,0,1.,4.8,0.,4.8,,0,0.,4.8,1.,4.8
1979-07-16 15:09:51.960 ,2,0,,0,11.,4.8,1.,4.8,,0,0.,4.8,1.,4.8
1979-07-16 15:09:56.760 ,2,0,,0,6.,4.8,1.,4.8,,0,0.,4.8,1.,4.8
1979-07-16 15:10:01.560 ,2,0,,0,11.,4.8,3.,4.8,,0,0.,4.8,3.,4.8
1979-07-16 15:10:06.360 ,2,0,,0,7.,4.8,0.,4.8,,0,0.,4.8,0.,4.8
1979-07-16 15:10:11.160 ,2,0,,0,4.,4.8,0.,4.8,,0,0.,4.8,1.,4.8
1979-07-16 15:10:15.960 ,2,0,,0,0.,4.8,0.,4.8,,0,0.,4.8,2.,4.8
1979-07-16 15:10:20.760 ,2,0,,0,0.,4.8,0.,4.8,,0,0.,4.8,0.,4.8
1979-07-16 15:10:25.560 ,1,0,,0,0.,4.8,0.,4.8,,0,0.,4.8,2.,4.8
1979-07-16 15:10:30.360 ,1,0,,0,0.,4.8,0.,4.8,,0,0.,4.8,0.,4.8
1979-07-16 15:10:35.160 ,1,0,,0,0.,4.8,0.,4.8,,0,0.,4.8,1.,4.8
1979-07-16 15:10:39.960 ,1,0,,0,3.,4.8,0.,4.8,,0,0.,4.8,0.,4.8
1979-07-16 15:10:44.760 ,1,0,,0,2.,4.8,0.,4.8,,0,0.,4.8,0.,4.8
1979-07-16 15:10:49.560 ,1,0,,0,2.,4.8,0.,4.8,,0,0.,4.8,0.,4.8
1979-07-16 15:10:54.360 ,1,0,,0,5.,4.8,0.,4.8,,0,0.,4.8,0.,4.8
1979-07-16 15:10:59.160 ,1,0,,0,4.,4.8,0.,4.8,,0,0.,4.8,0.,4.8
1979-07-16 15:11:03.960 ,1,0,,0,0.,4.8,0.,4.8,,0,0.,4.8,0.,4.8
1979-07-16 15:11:08.760 ,1,0,,0,0.,4.8,0.,4.8,,0,0.,4.8,0.,4.8
1979-07-16 15:11:13.560 ,0,0,,0,0.,4.8,0.,4.8,,0,0.,4.8,0.,4.8
1979-07-16 15:11:18.360 ,0,0,,0,1.,4.8,0.,4.8,,0,0.,4.8,0.,4.8
1979-07-16 15:11:23.160 ,0,0,,0,0.,4.8,0.,4.8,,0,0.,4.8,0.,4.8
1979-07-16 15:11:27.960 ,0,0,,0,3.,4.8,0.,4.8,,0,0.,4.8,0.,4.8
1979-07-16 15:11:32.760 ,0,0,,0,1.,4.8,0.,4.8,,0,0.,4.8,0.,4.8
1979-07-16 15:11:37.560 ,0,0,,0,1.,4.8,0.,4.8,,0,0.,4.8,0.,4.8
1979-07-16 15:11:42.360 ,0,0,,0,2.,4.8,0.,4.8,,0,0.,4.8,1.,4.8
1979-07-16 15:11:47.160 ,0,0,,0,3.,4.8,1.,4.8,,0,0.,4.8,0.,4.8
1979-07-16 15:11:51.960 ,0,0,,0,0.,4.8,0.,4.8,,0,0.,4.8,0.,4.8
1979-07-16 15:11:56.760 ,0,0,,0,0.,4.8,0.,4.8,,0,0.,4.8,0.,4.8
1979-07-16 15:12:01.560 ,0,0,,0,0.,4.8,0.,4.8,,0,0.,4.8,0.,4.8
1979-07-16 15:12:06.360 ,0,0,,0,0.,4.8,0.,4.8,,0,0.,4.8,0.,4.8
1979-07-16 15:12:11.160 ,0,0,,0,0.,4.8,0.,4.8,,0,0.,4.8,0.,4.8
1979-07-16 15:12:15.960 ,0,0,,0,1.,4.8,0.,4.8,,0,0.,4.8,0.,4.8
1979-07-16 15:12:20.760 ,0,0,,0,1.,4.8,0.,4.8,,0,0.,4.8,0.,4.8
1979-07-16 15:12:25.560 ,0,0,,0,1.,4.8,0.,4.8,,0,0.,4.8,0.,4.8
1979-07-16 15:12:30.360 ,0,0,,0,2.,4.8,0.,4.8,,0,0.,4.8,0.,4.8
1979-07-16 15:12:35.160 ,0,0,,0,3.,4.8,0.,4.8,,0,0.,4.8,0.,4.8
1979-07-16 15:12:39.960 ,0,0,,0,0.,4.8,0.,4.8,,0,0.,4.8,0.,4.8
1979-07-16 15:12:44.760 ,0,0,,0,0.,4.8,0.,4.8,,0,0.,4.8,0.,4.8
1979-07-16 15:12:49.560 ,1,0,,0,0.,4.8,0.,4.8,,0,0.,4.8,0.,4.8
1979-07-16 15:12:54.360 ,1,0,,0,0.,4.8,0.,4.8,,0,0.,4.8,0.,4.8
1979-07-16 15:12:59.160 ,1,0,,0,0.,4.8,0.,4.8,,0,0.,4.8,0.,4.8
1979-07-16 15:13:03.960 ,1,0,,0,4.,4.8,0.,4.8,,0,0.,4.8,1.,4.8
1979-07-16 15:13:08.760 ,1,0,,0,0.,4.8,0.,4.8,,0,0.,4.8,0.,4.8
1979-07-16 15:13:13.560 ,1,0,,0,5.,4.8,0.,4.8,,0,0.,4.8,1.,4.8
1979-07-16 15:13:18.360 ,1,0,,0,1.,4.8,0.,4.8,,0,0.,4.8,0.,4.8
1979-07-16 15:13:23.160 ,1,0,,0,2.,4.8,0.,4.8,,0,0.,4.8,2.,4.8
1979-07-16 15:13:27.960 ,1,0,,0,0.,4.8,0.,4.8,,0,0.,4.8,0.,4.8
1979-07-16 15:13:32.760 ,1,0,,0,0.,4.8,0.,4.8,,0,0.,4.8,0.,4.8
1979-07-16 15:13:37.560 ,2,0,,0,0.,4.8,0.,4.8,,0,0.,4.8,0.,4.8
1979-07-16 15:13:42.360 ,2,0,,0,0.,4.8,0.,4.8,,0,0.,4.8,1.,4.8
1979-07-16 15:13:47.160 ,2,0,,0,1.,4.8,0.,4.8,,0,0.,4.8,1.,4.8
1979-07-16 15:13:51.960 ,2,0,,0,5.,4.8,0.,4.8,,0,0.,4.8,0.,4.8
1979-07-16 15:13:56.760 ,2,0,,0,9.,4.8,2.,4.8,,0,0.,4.8,3.,4.8
1979-07-16 15:14:01.560 ,2,0,,0,9.,4.8,4.,4.8,,0,0.,4.8,1.,4.8
1979-07-16 15:14:06.360 ,2,0,,0,5.,4.8,1.,4.8,,0,0.,4.8,0.,4.8
1979-07-16 15:14:11.160 ,2,0,,0,2.,4.8,1.,4.8,,0,0.,4.8,0.,4.8
1979-07-16 15:14:15.960 ,2,0,,0,0.,4.8,0.,4.8,,0,0.,4.8,0.,4.8
1979-07-16 15:14:20.760 ,2,0,,0,0.,4.8,0.,4.8,,0,0.,4.8,0.,4.8
1979-07-16 15:14:25.560 ,3,0,,0,0.,4.8,0.,4.8,,0,0.,4.8,0.,4.8
1979-07-16 15:14:30.360 ,3,0,,0,0.,4.8,0.,4.8,,0,0.,4.8,6.,4.8
1979-07-16 15:14:35.160 ,3,0,,0,8.,4.8,2.,4.8,,0,0.,4.8,10.,4.8
1979-07-16 15:14:39.960 ,3,0,,0,60.,4.8,4.,4.8,,0,0.,4.8,11.,4.8
1979-07-16 15:14:44.760 ,3,0,,0,36.,4.8,5.,4.8,,0,0.,4.8,5.,4.8
1979-07-16 15:14:49.560 ,3,0,,0,64.,4.8,11.,4.8,,0,0.,4.8,5.,4.8
1979-07-16 15:14:54.360 ,3,0,,0,55.,4.8,7.,4.8,,0,0.,4.8,9.,4.8
1979-07-16 15:14:59.160 ,3,0,,0,53.,4.8,6.,4.8,,0,0.,4.8,6.,4.8
1979-07-16 15:15:03.960 ,3,0,,0,0.,4.8,0.,4.8,,0,0.,4.8,8.,4.8
1979-07-16 15:15:08.760 ,3,0,,0,0.,4.8,0.,4.8,,0,0.,4.8,8.,4.8
1979-07-16 15:15:13.560 ,4,0,,0,0.,4.8,0.,4.8,,0,0.,4.8,7.,4.8
1979-07-16 15:15:18.360 ,4,0,,0,0.,4.8,0.,4.8,,0,0.,4.8,9.,4.8
1979-07-16 15:15:23.160 ,4,0,,0,2.,4.8,0.,4.8,,0,0.,4.8,1.,4.8
1979-07-16 15:15:27.960 ,4,0,,0,5.,4.8,0.,4.8,,0,0.,4.8,1.,4.8
1979-07-16 15:15:32.760 ,4,0,,0,7.,4.8,0.,4.8,,0,0.,4.8,0.,4.8
1979-07-16 15:15:37.560 ,4,0,,0,3.,4.8,0.,4.8,,0,0.,4.8,0.,4.8
1979-07-16 15:15:42.360 ,4,0,,0,3.,4.8,0.,4.8,,0,0.,4.8,0.,4.8
1979-07-16 15:15:47.160 ,4,0,,0,8.,4.8,0.,4.8,,0,0.,4.8,0.,4.8
1979-07-16 15:15:51.960 ,4,0,,0,0.,4.8,0.,4.8,,0,0.,4.8,0.,4.8
1979-07-16 15:15:56.760 ,4,0,,0,0.,4.8,0.,4.8,,0,0.,4.8,0.,4.8
1979-07-16 15:16:01.560 ,5,0,,0,0.,4.8,0.,4.8,,0,0.,4.8,0.,4.8
1979-07-16 15:16:06.360 ,5,0,,0,0.,4.8,0.,4.8,,0,0.,4.8,0.,4.8
1979-07-16 15:16:11.160 ,5,0,,0,3.,4.8,0.,4.8,,0,0.,4.8,0.,4.8
1979-07-16 15:16:15.960 ,5,0,,0,4.,4.8,0.,4.8,,0,0.,4.8,0.,4.8
1979-07-16 15:16:20.760 ,5,0,,0,3.,4.8,0.,4.8,,0,0.,4.8,1.,4.8
1979-07-16 15:16:25.560 ,5,0,,0,2.,4.8,0.,4.8,,0,0.,4.8,0.,4.8
1979-07-16 15:16:30.360 ,5,0,,0,4.,4.8,0.,4.8,,0,0.,4.8,0.,4.8
1979-07-16 15:16:35.160 ,5,0,,0,4.,4.8,0.,4.8,,0,0.,4.8,0.,4.8
1979-07-16 15:16:39.960 ,5,0,,0,0.,4.8,0.,4.8,,0,0.,4.8,1.,4.8
1979-07-16 15:16:44.760 ,5,0,,0,0.,4.8,0.,4.8,,0,0.,4.8,0.,4.8
1979-07-16 15:16:49.560 ,6,0,,0,0.,4.8,0.,4.8,,0,0.,4.8,1.,4.8
1979-07-16 15:16:54.360 ,6,0,,0,0.,4.8,0.,4.8,,0,0.,4.8,2.,4.8
1979-07-16 15:16:59.160 ,6,0,,0,0.,4.8,0.,4.8,,0,0.,4.8,1.,4.8
1979-07-16 15:17:03.960 ,6,0,,0,3.,4.8,0.,4.8,,0,0.,4.8,0.,4.8
1979-07-16 15:17:08.760 ,6,0,,0,2.,4.8,0.,4.8,,0,0.,4.8,0.,4.8
1979-07-16 15:17:13.560 ,6,0,,0,2.,4.8,0.,4.8,,0,0.,4.8,0.,4.8
1979-07-16 15:17:18.360 ,6,0,,0,7.,4.8,0.,4.8,,0,0.,4.8,0.,4.8
1979-07-16 15:17:23.160 ,6,0,,0,5.,4.8,0.,4.8,,0,0.,4.8,0.,4.8
1979-07-16 15:17:27.960 ,6,0,,0,0.,4.8,0.,4.8,,0,0.,4.8,0.,4.8
1979-07-16 15:17:32.760 ,6,0,,0,0.,4.8,0.,4.8,,0,0.,4.8,1.,4.8
1979-07-16 15:17:37.560 ,7,0,,0,0.,4.8,0.,4.8,,0,0.,4.8,0.,4.8
1979-07-16 15:17:42.360 ,7,0,,0,0.,4.8,0.,4.8,,0,0.,4.8,0.,4.8
1979-07-16 15:17:47.160 ,7,0,,0,1.,4.8,0.,4.8,,0,0.,4.8,1.,4.8
1979-07-16 15:17:51.960 ,7,0,,0,12.,4.8,0.,4.8,,0,0.,4.8,0.,4.8
1979-07-16 15:17:56.760 ,7,0,,0,11.,4.8,0.,4.8,,0,0.,4.8,0.,4.8
1979-07-16 15:18:01.560 ,7,0,,0,11.,4.8,0.,4.8,,0,0.,4.8,0.,4.8
1979-07-16 15:18:06.360 ,7,0,,0,8.,4.8,0.,4.8,,0,0.,4.8,0.,4.8
1979-07-16 15:18:11.160 ,7,0,,0,8.,4.8,0.,4.8,,0,0.,4.8,1.,4.8
1979-07-16 15:18:15.960 ,7,0,,0,0.,4.8,0.,4.8,,0,0.,4.8,0.,4.8
1979-07-16 15:18:20.760 ,7,0,,0,0.,4.8,0.,4.8,,0,0.,4.8,0.,4.8
1979-07-16 15:18:25.560 ,7,0,,0,0.,4.8,0.,4.8,,0,0.,4.8,0.,4.8
1979-07-16 15:18:30.360 ,7,0,,0,0.,4.8,0.,4.8,,0,0.,4.8,0.,4.8
1979-07-16 15:18:35.160 ,7,0,,0,1.,4.8,0.,4.8,,0,0.,4.8,0.,4.8
1979-07-16 15:18:39.960 ,7,0,,0,8.,4.8,0.,4.8,,0,0.,4.8,0.,4.8
1979-07-16 15:18:44.760 ,7,0,,0,10.,4.8,0.,4.8,,0,0.,4.8,0.,4.8
1979-07-16 15:18:49.560 ,7,0,,0,4.,4.8,0.,4.8,,0,0.,4.8,0.,4.8
1979-07-16 15:18:54.360 ,7,0,,0,14.,4.8,0.,4.8,,0,0.,4.8,1.,4.8
1979-07-16 15:18:59.160 ,7,0,,0,11.,4.8,0.,4.8,,0,0.,4.8,0.,4.8
1979-07-16 15:19:03.960 ,7,0,,0,0.,4.8,0.,4.8,,0,0.,4.8,0.,4.8
1979-07-16 15:19:08.760 ,7,0,,0,0.,4.8,0.,4.8,,0,0.,4.8,0.,4.8
1979-07-16 15:19:13.560 ,6,0,,0,1.,4.8,0.,4.8,,0,0.,4.8,0.,4.8
1979-07-16 15:19:18.360 ,6,0,,0,0.,4.8,0.,4.8,,0,0.,4.8,0.,4.8
1979-07-16 15:19:23.160 ,6,0,,0,1.,4.8,0.,4.8,,0,0.,4.8,0.,4.8
1979-07-16 15:19:27.960 ,6,0,,0,5.,4.8,0.,4.8,,0,0.,4.8,1.,4.8
1979-07-16 15:19:32.760 ,6,0,,0,6.,4.8,0.,4.8,,0,0.,4.8,0.,4.8
1979-07-16 15:19:37.560 ,6,0,,0,6.,4.8,0.,4.8,,0,0.,4.8,0.,4.8
1979-07-16 15:19:42.360 ,6,0,,0,2.,4.8,0.,4.8,,0,0.,4.8,0.,4.8
1979-07-16 15:19:47.160 ,6,0,,0,7.,4.8,0.,4.8,,0,0.,4.8,1.,4.8
1979-07-16 15:19:51.960 ,6,0,,0,0.,4.8,0.,4.8,,0,0.,4.8,0.,4.8
1979-07-16 15:19:56.760 ,6,0,,0,0.,4.8,0.,4.8,,0,0.,4.8,0.,4.8
1979-07-16 15:20:01.560 ,5,0,,0,0.,4.8,0.,4.8,,0,0.,4.8,0.,4.8
1979-07-16 15:20:06.360 ,5,0,,0,0.,4.8,0.,4.8,,0,0.,4.8,0.,4.8
1979-07-16 15:20:11.160 ,5,0,,0,2.,4.8,0.,4.8,,0,0.,4.8,0.,4.8
1979-07-16 15:20:15.960 ,5,0,,0,3.,4.8,0.,4.8,,0,0.,4.8,0.,4.8
1979-07-16 15:20:20.760 ,5,0,,0,6.,4.8,0.,4.8,,0,0.,4.8,0.,4.8
1979-07-16 15:20:25.560 ,5,0,,0,8.,4.8,0.,4.8,,0,0.,4.8,0.,4.8
1979-07-16 15:20:30.360 ,5,0,,0,6.,4.8,0.,4.8,,0,0.,4.8,0.,4.8
1979-07-16 15:20:35.160 ,5,0,,0,1.,4.8,0.,4.8,,0,0.,4.8,0.,4.8
1979-07-16 15:20:39.960 ,5,0,,0,0.,4.8,0.,4.8,,0,0.,4.8,0.,4.8
1979-07-16 15:20:44.760 ,5,0,,0,1.,4.8,0.,4.8,,0,0.,4.8,0.,4.8
1979-07-16 15:20:49.560 ,4,0,,0,0.,4.8,0.,4.8,,0,0.,4.8,0.,4.8
1979-07-16 15:20:54.360 ,4,0,,0,0.,4.8,0.,4.8,,0,0.,4.8,1.,4.8
1979-07-16 15:20:59.160 ,4,0,,0,2.,4.8,0.,4.8,,0,0.,4.8,0.,4.8
1979-07-16 15:21:03.960 ,4,0,,0,2.,4.8,0.,4.8,,0,0.,4.8,0.,4.8
1979-07-16 15:21:08.760 ,4,0,,0,3.,4.8,0.,4.8,,0,0.,4.8,0.,4.8
1979-07-16 15:21:13.560 ,4,0,,0,5.,4.8,0.,4.8,,0,0.,4.8,0.,4.8
1979-07-16 15:21:18.360 ,4,0,,0,4.,4.8,0.,4.8,,0,0.,4.8,0.,4.8
1979-07-16 15:21:23.160 ,4,0,,0,5.,4.8,0.,4.8,,0,0.,4.8,0.,4.8
1979-07-16 15:21:27.960 ,4,0,,0,0.,4.8,0.,4.8,,0,0.,4.8,0.,4.8
1979-07-16 15:21:32.760 ,4,0,,0,0.,4.8,0.,4.8,,0,0.,4.8,0.,4.8
1979-07-16 15:21:37.560 ,3,0,,0,0.,4.8,0.,4.8,,0,0.,4.8,0.,4.8
1979-07-16 15:21:42.360 ,3,0,,0,0.,4.8,0.,4.8,,0,0.,4.8,29.,4.8
1979-07-16 15:21:47.160 ,3,0,,0,39.,4.8,8.,4.8,,0,0.,4.8,84.,4.8
1979-07-16 15:21:51.960 ,3,0,,0,208.,4.8,26.,4.8,,0,0.,4.8,100.,4.8
1979-07-16 15:21:56.760 ,3,0,,0,200.,4.8,22.,4.8,,0,0.,4.8,90.,4.8
1979-07-16 15:22:01.560 ,3,0,,0,160.,4.8,23.,4.8,,0,0.,4.8,62.,4.8
1979-07-16 15:22:06.360 ,3,0,,0,160.,4.8,28.,4.8,,0,0.,4.8,53.,4.8
1979-07-16 15:22:11.160 ,3,0,,0,144.,4.8,24.,4.8,,0,0.,4.8,74.,4.8
1979-07-16 15:22:15.960 ,3,0,,0,0.,4.8,0.,4.8,,0,0.,4.8,88.,4.8
1979-07-16 15:22:20.760 ,3,0,,0,0.,4.8,0.,4.8,,0,0.,4.8,94.,4.8
1979-07-16 15:22:25.560 ,2,0,,0,0.,4.8,0.,4.8,,0,0.,4.8,96.,4.8
1979-07-16 15:22:30.360 ,2,0,,0,0.,4.8,0.,4.8,,0,0.,4.8,88.,4.8
1979-07-16 15:22:35.160 ,2,0,,0,10.,4.8,1.,4.8,,0,0.,4.8,15.,4.8
1979-07-16 15:22:39.960 ,2,0,,0,42.,4.8,4.,4.8,,0,0.,4.8,15.,4.8
1979-07-16 15:22:44.760 ,2,0,,0,38.,4.8,8.,4.8,,0,0.,4.8,11.,4.8
1979-07-16 15:22:49.560 ,2,0,,0,46.,4.8,3.,4.8,,0,0.,4.8,13.,4.8
1979-07-16 15:22:54.360 ,2,0,,0,47.,4.8,7.,4.8,,0,0.,4.8,10.,4.8
1979-07-16 15:22:59.160 ,2,0,,0,27.,4.8,4.,4.8,,0,0.,4.8,11.,4.8
1979-07-16 15:23:03.960 ,2,0,,0,0.,4.8,0.,4.8,,0,0.,4.8,11.,4.8
1979-07-16 15:23:08.760 ,2,0,,0,0.,4.8,0.,4.8,,0,0.,4.8,19.,4.8
1979-07-16 15:23:13.560 ,1,0,,0,0.,4.8,0.,4.8,,0,0.,4.8,14.,4.8
1979-07-16 15:23:18.360 ,1,0,,0,0.,4.8,0.,4.8,,0,0.,4.8,11.,4.8
1979-07-16 15:23:23.160 ,1,0,,0,0.,4.8,0.,4.8,,0,0.,4.8,0.,4.8
1979-07-16 15:23:27.960 ,1,0,,0,3.,4.8,0.,4.8,,0,0.,4.8,0.,4.8
1979-07-16 15:23:32.760 ,1,0,,0,3.,4.8,0.,4.8,,0,0.,4.8,0.,4.8
1979-07-16 15:23:37.560 ,1,0,,0,1.,4.8,0.,4.8,,0,0.,4.8,0.,4.8
1979-07-16 15:23:42.360 ,1,0,,0,0.,4.8,0.,4.8,,0,0.,4.8,0.,4.8
1979-07-16 15:23:47.160 ,1,0,,0,2.,4.8,0.,4.8,,0,0.,4.8,0.,4.8
1979-07-16 15:23:51.960 ,1,0,,0,0.,4.8,0.,4.8,,0,0.,4.8,0.,4.8
1979-07-16 15:23:56.760 ,1,0,,0,0.,4.8,0.,4.8,,0,0.,4.8,1.,4.8
1979-07-16 15:24:01.560 ,0,0,,0,0.,4.8,0.,4.8,,0,0.,4.8,0.,4.8
1979-07-16 15:24:06.360 ,0,0,,0,0.,4.8,0.,4.8,,0,0.,4.8,0.,4.8
1979-07-16 15:24:11.160 ,0,0,,0,0.,4.8,0.,4.8,,0,0.,4.8,1.,4.8
1979-07-16 15:24:15.960 ,0,0,,0,6.,4.8,0.,4.8,,0,0.,4.8,1.,4.8
1979-07-16 15:24:20.760 ,0,0,,0,2.,4.8,0.,4.8,,0,0.,4.8,0.,4.8
1979-07-16 15:24:25.560 ,0,0,,0,1.,4.8,0.,4.8,,0,0.,4.8,0.,4.8
1979-07-16 15:24:30.360 ,0,0,,0,5.,4.8,0.,4.8,,0,0.,4.8,1.,4.8
1979-07-16 15:24:35.160 ,0,0,,0,2.,4.8,0.,4.8,,0,0.,4.8,0.,4.8
1979-07-16 15:24:39.960 ,0,0,,0,0.,4.8,0.,4.8,,0,0.,4.8,0.,4.8
1979-07-16 15:24:44.760 ,0,0,,0,0.,4.8,0.,4.8,,0,0.,4.8,1.,4.8
1979-07-16 15:24:49.560 ,0,0,,0,0.,4.8,0.,4.8,,0,0.,4.8,0.,4.8
1979-07-16 15:24:54.360 ,0,0,,0,0.,4.8,0.,4.8,,0,0.,4.8,0.,4.8
1979-07-16 15:24:59.160 ,0,0,,0,0.,4.8,0.,4.8,,0,0.,4.8,0.,4.8
1979-07-16 15:25:03.960 ,0,0,,0,4.,4.8,0.,4.8,,0,0.,4.8,0.,4.8
1979-07-16 15:25:08.760 ,0,0,,0,2.,4.8,0.,4.8,,0,0.,4.8,0.,4.8
1979-07-16 15:25:13.560 ,0,0,,0,1.,4.8,0.,4.8,,0,0.,4.8,0.,4.8
1979-07-16 15:25:18.360 ,0,0,,0,3.,4.8,0.,4.8,,0,0.,4.8,0.,4.8
1979-07-16 15:25:23.160 ,0,0,,0,2.,4.8,0.,4.8,,0,0.,4.8,0.,4.8
1979-07-16 15:25:27.960 ,0,0,,0,0.,4.8,0.,4.8,,0,0.,4.8,0.,4.8
1979-07-16 15:25:32.760 ,0,0,,0,0.,4.8,0.,4.8,,0,0.,4.8,0.,4.8
1979-07-16 15:25:37.560 ,1,0,,0,0.,4.8,0.,4.8,,0,0.,4.8,0.,4.8
1979-07-16 15:25:42.360 ,1,0,,0,0.,4.8,0.,4.8,,0,0.,4.8,0.,4.8
1979-07-16 15:25:47.160 ,1,0,,0,0.,4.8,0.,4.8,,0,0.,4.8,0.,4.8
1979-07-16 15:25:51.960 ,1,0,,0,2.,4.8,0.,4.8,,0,0.,4.8,0.,4.8
1979-07-16 15:25:56.760 ,1,0,,0,3.,4.8,0.,4.8,,0,0.,4.8,1.,4.8
1979-07-16 15:26:01.560 ,1,0,,0,2.,4.8,0.,4.8,,0,0.,4.8,0.,4.8
1979-07-16 15:26:06.360 ,1,0,,0,1.,4.8,0.,4.8,,0,0.,4.8,1.,4.8
1979-07-16 15:26:11.160 ,1,0,,0,1.,4.8,0.,4.8,,0,0.,4.8,1.,4.8
1979-07-16 15:26:15.960 ,1,0,,0,0.,4.8,0.,4.8,,0,0.,4.8,0.,4.8
1979-07-16 15:26:20.760 ,1,0,,0,0.,4.8,0.,4.8,,0,0.,4.8,1.,4.8
1979-07-16 15:26:25.560 ,2,0,,0,0.,4.8,0.,4.8,,0,0.,4.8,0.,4.8
1979-07-16 15:26:30.360 ,2,0,,0,0.,4.8,0.,4.8,,0,0.,4.8,9.,4.8
1979-07-16 15:26:35.160 ,2,0,,0,9.,4.8,3.,4.8,,0,0.,4.8,12.,4.8
1979-07-16 15:26:39.960 ,2,0,,0,62.,4.8,11.,4.8,,0,0.,4.8,21.,4.8
1979-07-16 15:26:44.760 ,2,0,,0,58.,4.8,6.,4.8,,0,0.,4.8,17.,4.8
1979-07-16 15:26:49.560 ,2,0,,0,46.,4.8,10.,4.8,,0,0.,4.8,22.,4.8
1979-07-16 15:26:54.360 ,2,0,,0,53.,4.8,4.,4.8,,0,0.,4.8,23.,4.8
1979-07-16 15:26:59.160 ,2,0,,0,44.,4.8,10.,4.8,,0,0.,4.8,24.,4.8
1979-07-16 15:27:03.960 ,2,0,,0,0.,4.8,0.,4.8,,0,0.,4.8,20.,4.8
1979-07-16 15:27:08.760 ,2,0,,0,0.,4.8,0.,4.8,,0,0.,4.8,27.,4.8
1979-07-16 15:27:13.560 ,3,0,,0,0.,4.8,0.,4.8,,0,0.,4.8,14.,4.8
1979-07-16 15:27:18.360 ,3,0,,0,0.,4.8,0.,4.8,,0,0.,4.8,172.,4.8
1979-07-16 15:27:23.160 ,3,0,,0,140.,4.8,5.,4.8,,0,0.,4.8,440.,4.8
1979-07-16 15:27:27.960 ,3,0,,0,864.,4.8,41.,4.8,,0,0.,4.8,432.,4.8
1979-07-16 15:27:32.760 ,3,0,,0,800.,4.8,40.,4.8,,0,0.,4.8,424.,4.8
1979-07-16 15:27:37.560 ,3,0,,0,736.,4.8,27.,4.8,,0,0.,4.8,384.,4.8
1979-07-16 15:27:42.360 ,3,0,,0,672.,4.8,35.,4.8,,0,0.,4.8,392.,4.8
1979-07-16 15:27:47.160 ,3,0,,0,576.,4.8,23.,4.8,,0,0.,4.8,408.,4.8
1979-07-16 15:27:51.960 ,3,0,,0,0.,4.8,0.,4.8,,0,0.,4.8,416.,4.8
1979-07-16 15:27:56.760 ,3,0,,0,0.,4.8,0.,4.8,,0,0.,4.8,392.,4.8
1979-07-16 15:28:01.560 ,4,0,,0,0.,4.8,0.,4.8,,0,0.,4.8,376.,4.8
1979-07-16 15:28:06.360 ,4,0,,0,0.,4.8,0.,4.8,,0,0.,4.8,240.,4.8
1979-07-16 15:28:11.160 ,4,0,,0,0.,4.8,0.,4.8,,0,0.,4.8,0.,4.8
1979-07-16 15:28:15.960 ,4,0,,0,3.,4.8,1.,4.8,,0,0.,4.8,0.,4.8
1979-07-16 15:28:20.760 ,4,0,,0,5.,4.8,0.,4.8,,0,0.,4.8,1.,4.8
1979-07-16 15:28:25.560 ,4,0,,0,4.,4.8,0.,4.8,,0,0.,4.8,0.,4.8
1979-07-16 15:28:30.360 ,4,0,,0,5.,4.8,1.,4.8,,0,0.,4.8,0.,4.8
1979-07-16 15:28:35.160 ,4,0,,0,3.,4.8,1.,4.8,,0,0.,4.8,0.,4.8
1979-07-16 15:28:39.960 ,4,0,,0,0.,4.8,0.,4.8,,0,0.,4.8,0.,4.8
1979-07-16 15:28:44.760 ,4,0,,0,0.,4.8,0.,4.8,,0,0.,4.8,1.,4.8
1979-07-16 15:28:49.560 ,5,0,,0,0.,4.8,0.,4.8,,0,0.,4.8,0.,4.8
1979-07-16 15:28:54.360 ,5,0,,0,0.,4.8,0.,4.8,,0,0.,4.8,0.,4.8
1979-07-16 15:28:59.160 ,5,0,,0,2.,4.8,1.,4.8,,0,0.,4.8,0.,4.8
1979-07-16 15:29:03.960 ,5,0,,0,10.,4.8,1.,4.8,,0,0.,4.8,0.,4.8
1979-07-16 15:29:08.760 ,5,0,,0,6.,4.8,1.,4.8,,0,0.,4.8,0.,4.8
1979-07-16 15:29:13.560 ,5,0,,0,4.,4.8,1.,4.8,,0,0.,4.8,0.,4.8
1979-07-16 15:29:18.360 ,5,0,,0,8.,4.8,1.,4.8,,0,0.,4.8,1.,4.8
1979-07-16 15:29:23.160 ,5,0,,0,4.,4.8,1.,4.8,,0,0.,4.8,1.,4.8
1979-07-16 15:29:27.960 ,5,0,,0,0.,4.8,0.,4.8,,0,0.,4.8,0.,4.8
1979-07-16 15:29:32.760 ,5,0,,0,0.,4.8,0.,4.8,,0,0.,4.8,0.,4.8
1979-07-16 15:29:37.560 ,6,0,,0,0.,4.8,0.,4.8,,0,0.,4.8,0.,4.8
1979-07-16 15:29:42.360 ,6,0,,0,0.,4.8,0.,4.8,,0,0.,4.8,0.,4.8
1979-07-16 15:29:47.160 ,6,0,,0,1.,4.8,0.,4.8,,0,0.,4.8,0.,4.8
1979-07-16 15:29:51.960 ,6,0,,0,3.,4.8,0.,4.8,,0,0.,4.8,1.,4.8
1979-07-16 15:29:56.760 ,6,0,,0,6.,4.8,0.,4.8,,0,0.,4.8,0.,4.8
1979-07-16 15:30:01.560 ,6,0,,0,8.,4.8,0.,4.8,,0,0.,4.8,0.,4.8
1979-07-16 15:30:06.360 ,6,0,,0,4.,4.8,0.,4.8,,0,0.,4.8,0.,4.8
1979-07-16 15:30:11.160 ,6,0,,0,2.,4.8,0.,4.8,,0,0.,4.8,0.,4.8
1979-07-16 15:30:15.960 ,6,0,,0,0.,4.8,0.,4.8,,0,0.,4.8,0.,4.8
1979-07-16 15:30:20.760 ,6,0,,0,0.,4.8,0.,4.8,,0,0.,4.8,0.,4.8
1979-07-16 15:30:25.560 ,7,0,,0,0.,4.8,0.,4.8,,0,0.,4.8,0.,4.8
1979-07-16 15:30:30.360 ,7,0,,0,0.,4.8,0.,4.8,,0,0.,4.8,0.,4.8
1979-07-16 15:30:35.160 ,7,0,,0,1.,4.8,0.,4.8,,0,0.,4.8,0.,4.8
1979-07-16 15:30:39.960 ,7,0,,0,6.,4.8,0.,4.8,,0,0.,4.8,0.,4.8
1979-07-16 15:30:44.760 ,7,0,,0,7.,4.8,0.,4.8,,0,0.,4.8,0.,4.8